Weather History for Punta Gorda, FL

Change the Weather History Date:

Sunday, November 4, 2012

  Actual Average Record
Temperature  
Mean Temperature 72 °F -  
Max Temperature 84 °F 79 °F 84 °F (1996)
Min Temperature 59 °F 59 °F 46 °F (1999)
Cooling Degree Days 6    
Growing Degree Days 22 (Base 50)    
Moisture  
Dew Point 60 °F    
Average Humidity 79    
Maximum Humidity 100    
Minimum Humidity 34    
Precipitation  
Precipitation 0.02 in - - ()
Sea Level Pressure  
Sea Level Pressure 30.10 in    
Wind  
Wind Speed 1 mph (West)    
Max Wind Speed 9 mph    
Max Gust Speed -    
Visibility 5 miles    
Events Fog    
Averages and records for this station are not official NWS values.
T = Trace of Precipitation, MM = Missing Value Source: NWS Daily Summary

Daily Weather History Graph

Daily Weather History Graph

Search for Another Location

Airport:

Trip Planner

Search our weather history database for the weather conditions in past years. The results will help you decide how hot, cold, wet, or windy it might be!

Date:

Astronomy

Nov. 04, 2012 Rise Set
Actual Time 6:40 AM EST 5:42 PM EST
Civil Twilight 6:16 AM EST 6:06 PM EST
Nautical Twilight 5:48 AM EST 6:34 PM EST
Astronomical Twilight 5:21 AM EST 7:01 PM EST
Moon 10:23 PM EST (11/4) 11:17 AM EST (11/4)
Length of Visible Light 11h 50m
Length of Day
11h 02m
Waning Gibbous, 72% of the Moon is Illuminated
Nov 4
Waning Gibbous
Nov 6
Last Quarter
Nov 13
New
Nov 20
First Quarter
Nov 28
Full

Hourly Weather History & Observations

Time (EST) Temp. Heat Index Dew Point Humidity Pressure Visibility Wind Dir Wind Speed Gust Speed Precip Events Conditions
12:53 AM 64.0 °F - 61.0 °F 90% 30.13 in 9.0 mi Calm Calm - N/A   Partly Cloudy
1:05 AM 62.6 °F - 60.8 °F 94% 30.13 in 2.0 mi Calm Calm - N/A   Mostly Cloudy
1:17 AM 62.6 °F - 60.8 °F 94% 30.13 in 0.5 mi Calm Calm - N/A Fog Fog
1:31 AM 62.6 °F - 60.8 °F 94% 30.13 in 0.2 mi Calm Calm - N/A Fog Fog
1:53 AM 62.1 °F - 60.1 °F 93% 30.13 in 0.5 mi Calm Calm - N/A Fog Fog
1:07 AM 60.8 °F - 60.8 °F 100% 30.12 in 0.2 mi Calm Calm - N/A Fog Fog
1:39 AM 60.8 °F - 59.0 °F 94% 30.12 in 0.2 mi Calm Calm - N/A Fog Fog
1:53 AM 59.0 °F - 57.9 °F 96% 30.12 in 0.2 mi Calm Calm - N/A Fog Fog
2:53 AM 60.1 °F - 57.9 °F 93% 30.10 in 0.2 mi Calm Calm - 0.01 in Fog Fog
3:53 AM 63.0 °F - 61.0 °F 93% 30.11 in 0.2 mi Calm Calm - N/A Fog Fog
4:53 AM 64.0 °F - 62.1 °F 93% 30.11 in 0.2 mi Calm Calm - N/A Fog Fog
5:53 AM 63.0 °F - 61.0 °F 93% 30.12 in 0.2 mi Calm Calm - N/A Fog Fog
6:53 AM 62.1 °F - 60.1 °F 93% 30.14 in 0.2 mi Calm Calm - 0.01 in Fog Fog
7:53 AM 62.1 °F - 60.1 °F 93% 30.14 in 0.2 mi Calm Calm - N/A Fog Fog
8:53 AM 64.9 °F - 63.0 °F 93% 30.15 in 0.2 mi ENE 3.5 mph - N/A Fog Fog
9:38 AM 66.2 °F - 66.2 °F 100% 30.15 in 2.0 mi Calm Calm - N/A   Mostly Cloudy
9:43 AM 68.0 °F - 64.4 °F 88% 30.15 in 7.0 mi Calm Calm - N/A   Scattered Clouds
9:53 AM 69.1 °F - 66.0 °F 90% 30.14 in 9.0 mi Calm Calm - N/A   Scattered Clouds
10:53 AM 78.1 °F - 63.0 °F 60% 30.13 in 10.0 mi Calm Calm - N/A   Clear
11:53 AM 82.0 °F 81.7 °F 57.0 °F 42% 30.12 in 10.0 mi NE 3.5 mph - N/A   Clear
12:53 PM 82.0 °F 81.6 °F 55.9 °F 41% 30.09 in 10.0 mi Calm Calm - N/A   Clear
1:53 PM 82.9 °F 82.6 °F 57.9 °F 42% 30.06 in 10.0 mi Variable 4.6 mph - N/A   Clear
2:53 PM 84.0 °F 82.9 °F 55.0 °F 37% 30.04 in 10.0 mi West 8.1 mph - N/A   Clear
3:53 PM 81.0 °F - 50.0 °F 34% 30.03 in 10.0 mi WSW 9.2 mph - N/A   Clear
4:53 PM 79.0 °F - 57.9 °F 48% 30.03 in 10.0 mi WSW 8.1 mph - N/A   Clear
5:53 PM 75.0 °F - 59.0 °F 57% 30.04 in 10.0 mi West 5.8 mph - N/A   Clear
6:53 PM 71.1 °F - 61.0 °F 70% 30.05 in 10.0 mi West 5.8 mph - N/A   Clear
7:53 PM 70.0 °F - 62.1 °F 76% 30.06 in 10.0 mi WNW 4.6 mph - N/A   Clear
8:53 PM 68.0 °F - 63.0 °F 84% 30.07 in 10.0 mi NW 5.8 mph - N/A   Clear
9:53 PM 66.9 °F - 63.0 °F 87% 30.07 in 9.0 mi Calm Calm - N/A   Clear
10:53 PM 66.9 °F - 63.0 °F 87% 30.06 in 6.0 mi Calm Calm - N/A   Clear